This is the latest recevied weather packets stored in our database for station/object SR5MRF. If no packets are shown the sender has not sent any weather packets the latest 10 day(s).
| Time | Temp. | Humidity | Pressure | Rain* | Wind** | Luminosity | Snow |
|---|---|---|---|---|---|---|---|
| 1777877563 | 25° C | 33% | 1011.5 hPa | 0 mm | - | - | - |
| 1777877324 | 24.44° C | 33% | 1011.6 hPa | 0 mm | - | - | - |
| 1777877143 | 24.44° C | 34% | 1011.6 hPa | 0 mm | - | - | - |
| 1777876723 | 23.89° C | 34% | 1011.6 hPa | 0 mm | - | - | - |
| 1777876303 | 22.78° C | 35% | 1011.6 hPa | 0 mm | - | - | - |
| 1777876124 | 22.78° C | 35% | 1011.5 hPa | 0 mm | - | - | - |
| 1777875883 | 22.78° C | 36% | 1011.7 hPa | 0 mm | - | - | - |
| 1777875524 | 22.22° C | 37% | 1011.6 hPa | 0 mm | - | - | - |
| 1777875463 | 22.22° C | 37% | 1011.7 hPa | 0 mm | - | - | - |
| 1777875043 | 21.67° C | 38% | 1011.8 hPa | 0 mm | - | - | - |
| 1777874924 | 21.67° C | 38% | 1011.6 hPa | 0 mm | - | - | - |
| 1777874623 | 21.11° C | 41% | 1011.7 hPa | 0 mm | - | - | - |
| 1777874324 | 20.56° C | 42% | 1011.6 hPa | 0 mm | - | - | - |
| 1777874203 | 19.44° C | 42% | 1011.6 hPa | 0 mm | - | - | - |
| 1777873783 | 17.78° C | 47% | 1011.5 hPa | 0 mm | - | - | - |
| 1777873724 | 17.78° C | 47% | 1011.6 hPa | 0 mm | - | - | - |
| 1777873363 | 16.67° C | 48% | 1011.5 hPa | 0 mm | - | - | - |
| 1777873124 | 16.11° C | 49% | 1011.4 hPa | 0 mm | - | - | - |
| 1777872943 | 15.56° C | 50% | 1011.6 hPa | 0 mm | - | - | - |
| 1777872523 | 15° C | 51% | 1011.6 hPa | 0 mm | - | - | - |
| 1777872103 | 14.44° C | 52% | 1011.7 hPa | 0 mm | - | - | - |
| 1777871924 | 13.89° C | 53% | 1011.7 hPa | 0 mm | - | - | - |
| 1777871683 | 13.89° C | 53% | 1011.7 hPa | 0 mm | - | - | - |
| 1777871324 | 13.89° C | 54% | 1011.7 hPa | 0 mm | - | - | - |
| 1777871263 | 13.89° C | 54% | 1011.6 hPa | 0 mm | - | - | - |
* Rain latest hour (hover to see other rain measurements)
** Current wind speed in m/s (hover to see current wind gust speed)